Tracking 31027 objects as of 19-Jul-2025
HD Live streaming from Space Station
objects crossing your sky now

TITAN 3C TRANSTAGE DEB

Track TITAN 3C TRANSTAGE DEB now!
10-day predictions


NORAD ID: 1859
Int'l Code: 1965-082ES
Perigee: 689.2 km
Apogee: 785.3 km
Inclination: 32.1 °
Period: 99.4 minutes
Semi major axis: 7108 km
RCS: 0.1777 m2 (medium)
Launch date: October 15, 1965
Source: United States (US)
Launch site: AIR FORCE EASTERN TEST RANGE (AFETR)

Note: This is SATELLITE DEBRIS
Your satellite tracking list
GEOTAIL
Track 1 satellite(s)




NASA's NSSDC Master Catalog

Two Line Element Set (TLE):
1 01859U 65082ES  25199.60139599  .00000389  00000-0  89760-4 0  9996
2 01859  32.1269 297.1490 0067604 302.7330  56.6808 14.48645294138654
Source of the keplerian elements: AFSPC